Location: Newark
(43.0000°N, 1.6781°W)
Time: 04:26:12
(UTC+00:00)

Explorer 7 - Pass Details

Date: 25 April 2021
Orbit: 484 x 677 km, 50.3° (Epoch: 07 May)

Event Time Altitude Azimuth Distance (km) Brightness Sun altitude
Rises 19:13:50 0° 261° (W) 2,593 11.4 -3.0°
Reaches altitude 10° 19:16:03 10° 269° (W) 1,733 10.7 -3.4°
Maximum altitude 19:19:48 42° 342° (NNW) 761 8.0 -4.0°
Drops below altitude 10° 19:23:47 10° 54° (NE) 1,838 9.2 -4.7°
Sets 19:26:12 0° 61° (ENE) 2,772 10.0 -5.1°
